User: anonymous   Login
Location: Unspecified
(38.9833°N, 0.0000°E)
Time: 03:28:09
(UTC+00:00)
Language:

QB50P2 - Orbit

View from above orbital plane
View from above orbital plane
View from above satellite
View from above satellite

Ground track
Ground track

The orbit data is extracted from the following two-line orbital elements,

1 40032U 14033Y   20296.60597246  .00000413  00000-0  50246-4 0  9997
2 40032 097.9036 218.0861 0010547 234.7343 125.2888 14.88734295343908
Epoch (UTC): 22 October 2020 14:32:36
Eccentricity: 0.0010547
inclination: 97.9036°
perigee height: 594 km
apogee height: 609 km
right ascension of ascending node: 218.0861°
argument of perigee: 234.7343°
revolutions per day: 14.88734295
mean anomaly at epoch: 125.2888°
orbit number at epoch: 34390

The dashed part of the orbit path shows where the satellite is in the earth's shadow,  

DLR